Gloucester, Virginia, United States (23061)
Lat: 37.41N, Lon: 76.53W
Wx Zone: VAZ084
Local Info
Past Weather Observations for Today

NOTE: This archive is for the closest National Weather Service station to Gloucester. Information may differ from the station used for current weather conditions.

Click here for Long-term Archive

Time Weather Temperature Dewpoint Humidity Pressure Winds Precip Visibility
16:15
Clear
32°F / 0°C 12°F / -11°C 44% 30.51 in
(1033 mb)
N 5.8 mph
(N 9 kph)
- 10SM
15:55
Clear
32°F / 0°C 12°F / -11°C 44% 30.51 in
(1033 mb)
N 5.8 mph
(N 9 kph)
- 10SM
15:35
Clear
32°F / 0°C 14°F / -10°C 47% 30.51 in
(1033 mb)
NW 5.8 mph
(NW 9 kph)
- 10SM
15:15
Clear
32°F / 0°C 14°F / -10°C 47% 30.51 in
(1033 mb)
NNW 5.8 mph
(NNW 9 kph)
- 10SM
14:55
Clear
32°F / 0°C 14°F / -10°C 47% 30.51 in
(1033 mb)
NW 5.8 mph
(NW 9 kph)
- 10SM
14:35
Clear
32°F / 0°C 12°F / -11°C 44% 30.51 in
(1033 mb)
NW 9.2 mph
(NW 15 kph)
- 10SM
14:15
Clear
32°F / 0°C 14°F / -10°C 47% 30.54 in
(1034 mb)
NNW 6.9 mph
(NNW 11 kph)
- 10SM
13:55
Clear
32°F / 0°C 14°F / -10°C 47% 30.54 in
(1034 mb)
NW 8.1 mph
(NW 13 kph)
- 10SM
13:35
Clear
30°F / -1°C 14°F / -10°C 51% 30.54 in
(1034 mb)
NNW 8.1 mph
(NNW 13 kph)
- 10SM
13:15
Clear
30°F / -1°C 12°F / -11°C 47% 30.57 in
(1035 mb)
Calm - 10SM
12:55
Clear
30°F / -1°C 14°F / -10°C 51% 30.57 in
(1035 mb)
N 4.6 mph
(N 7 kph)
- 10SM
12:35
Clear
28°F / -2°C 12°F / -11°C 51% 30.57 in
(1035 mb)
N 6.9 mph
(N 11 kph)
- 10SM
12:15
Clear
28°F / -2°C 12°F / -11°C 51% 30.57 in
(1035 mb)
W 4.6 mph
(W 7 kph)
- 10SM
11:55
Clear
28°F / -2°C 12°F / -11°C 51% 30.6 in
(1036 mb)
NNE 4.6 mph
(NNE 7 kph)
- 10SM
11:35
Clear
28°F / -2°C 12°F / -11°C 51% 30.6 in
(1036 mb)
NW 5.8 mph
(NW 9 kph)
- 10SM
11:15
Clear
27°F / -3°C 12°F / -11°C 54% 30.6 in
(1036 mb)
NNE 4.6 mph
(NNE 7 kph)
- 10SM
10:55
Clear
27°F / -3°C 12°F / -11°C 54% 30.6 in
(1036 mb)
N 8.1 mph
(N 13 kph)
- 10SM
10:35
Clear
27°F / -3°C 10°F / -12°C 50% 30.6 in
(1036 mb)
N 6.9 mph
(N 11 kph)
- 10SM
10:15
Clear
27°F / -3°C 10°F / -12°C 50% 30.6 in
(1036 mb)
N 8.1 mph
(N 13 kph)
- 10SM
09:55
Partly Cloudy
25°F / -4°C 10°F / -12°C 54% 30.63 in
(1037 mb)
N 6.9 mph
(N 11 kph)
- 10SM
09:35
Clear
25°F / -4°C 10°F / -12°C 54% 30.63 in
(1037 mb)
N 8.1 mph
(N 13 kph)
- 10SM
09:15
Clear
25°F / -4°C 10°F / -12°C 54% 30.63 in
(1037 mb)
N 10.4 mph
(N 17 kph)
- 10SM
08:55
Clear
25°F / -4°C 9°F / -13°C 50% 30.6 in
(1036 mb)
NNE 8.1 mph
(NNE 13 kph)
- 10SM
08:35
Clear
23°F / -5°C 9°F / -13°C 54% 30.6 in
(1036 mb)
N 6.9 mph
(N 11 kph)
- 10SM
08:15
Clear
23°F / -5°C 9°F / -13°C 54% 30.6 in
(1036 mb)
N 6.9 mph
(N 11 kph)
- 10SM
07:55
Clear
21°F / -6°C 9°F / -13°C 58% 30.6 in
(1036 mb)
NNW 6.9 mph
(NNW 11 kph)
- 10SM
07:35
Clear
21°F / -6°C 9°F / -13°C 58% 30.57 in
(1035 mb)
NNW 4.6 mph
(NNW 7 kph)
- 10SM
07:15
Clear
19°F / -7°C 9°F / -13°C 63% 30.57 in
(1035 mb)
NNW 6.9 mph
(NNW 11 kph)
- 10SM
06:55
Clear
19°F / -7°C 9°F / -13°C 63% 30.57 in
(1035 mb)
NNW 4.6 mph
(NNW 7 kph)
- 10SM
06:35
Clear
19°F / -7°C 9°F / -13°C 63% 30.57 in
(1035 mb)
NNW 4.6 mph
(NNW 7 kph)
- 10SM
06:15
Clear
19°F / -7°C 10°F / -12°C 68% 30.57 in
(1035 mb)
NNW 4.6 mph
(NNW 7 kph)
- 10SM
05:55
Clear
19°F / -7°C 10°F / -12°C 68% 30.57 in
(1035 mb)
N 3.5 mph
(N 6 kph)
- 10SM
05:35
Clear
19°F / -7°C 10°F / -12°C 68% 30.54 in
(1034 mb)
NNW 4.6 mph
(NNW 7 kph)
- 10SM
05:15
Clear
21°F / -6°C 12°F / -11°C 68% 30.54 in
(1034 mb)
NNW 5.8 mph
(NNW 9 kph)
- 10SM
04:55
Clear
21°F / -6°C 12°F / -11°C 68% 30.54 in
(1034 mb)
NNW 5.8 mph
(NNW 9 kph)
- 10SM
04:35
Clear
21°F / -6°C 12°F / -11°C 68% 30.51 in
(1033 mb)
NNW 4.6 mph
(NNW 7 kph)
- 10SM
04:15
Clear
21°F / -6°C 12°F / -11°C 68% 30.51 in
(1033 mb)
NNW 4.6 mph
(NNW 7 kph)
- 10SM
03:55
Clear
23°F / -5°C 12°F / -11°C 63% 30.48 in
(1032 mb)
NNW 4.6 mph
(NNW 7 kph)
- 10SM
03:35
Clear
23°F / -5°C 12°F / -11°C 63% 30.48 in
(1032 mb)
NNW 5.8 mph
(NNW 9 kph)
- 10SM
03:15
Clear
23°F / -5°C 14°F / -10°C 68% 30.48 in
(1032 mb)
NNW 8.1 mph
(NNW 13 kph)
- 10SM
02:55
Clear
23°F / -5°C 14°F / -10°C 68% 30.48 in
(1032 mb)
NNW 8.1 mph
(NNW 13 kph)
- 10SM
02:35
Clear
25°F / -4°C 16°F / -9°C 69% 30.48 in
(1032 mb)
NW 3.5 mph
(NW 6 kph)
- 10SM
02:15
Clear
25°F / -4°C 16°F / -9°C 69% 30.45 in
(1031 mb)
NNW 5.8 mph
(NNW 9 kph)
- 10SM
01:55
Clear
25°F / -4°C 18°F / -8°C 74% 30.45 in
(1031 mb)
NNW 5.8 mph
(NNW 9 kph)
- 10SM
01:35
Partly Cloudy
27°F / -3°C 18°F / -8°C 69% 30.45 in
(1031 mb)
NNW 6.9 mph
(NNW 11 kph)
- 10SM
01:15
Mostly Cloudy
27°F / -3°C 19°F / -7°C 74% 30.45 in
(1031 mb)
N 4.6 mph
(N 7 kph)
- 10SM
00:55
Mostly Cloudy
27°F / -3°C 19°F / -7°C 74% 30.45 in
(1031 mb)
NNW 4.6 mph
(NNW 7 kph)
- 10SM
00:35
Mostly Cloudy
28°F / -2°C 19°F / -7°C 69% 30.45 in
(1031 mb)
NNW 6.9 mph
(NNW 11 kph)
- 10SM
00:15
Overcast
28°F / -2°C 19°F / -7°C 69% 30.45 in
(1031 mb)
N 9.2 mph
(N 15 kph)
- 10SM
Time Weather Temperature Dewpoint Humidity Pressure Winds Precip Visibility


Weather for websites

WeatherForYou.com, LLC is not responsible for any damages or problems caused by this service. Current weather conditions are obtained from the closest station including government and personal stations which may have varying degrees of accuracy. Weather forecasts are derived from the NOAA NDFD. Like all things, this site belongs to Jesus Christ... He just trusts me to maintain it. If you have any questions or comments email webmaster@weatherforyou.com

Copyright © 2015, WeatherForYou.com LLC. All rights reserved.